User: anonymous   Login
Location: Guilderland
(42.7045°N, 73.9115°W)
Time: 22:46:35
(UTC+00:00)
Language:

USA 234 - Orbit

View from above orbital plane
View from above orbital plane
View from above satellite
View from above satellite

Ground track
Ground track

The orbit data is extracted from the following two-line orbital elements,

1 38109U 12014A   20089.92543038 0.00000000  00000-0  00000-0 0    05
2 38109 123.0011 270.4961 0003726  89.7637 270.2362 13.41423737    05
Epoch (UTC): 29 March 2020 22:12:37
Eccentricity: 0.0003726
inclination: 123.0011°
perigee height: 1101 km
apogee height: 1107 km
right ascension of ascending node: 270.4961°
argument of perigee: 89.7637°
revolutions per day: 13.41423737
mean anomaly at epoch: 270.2362°
orbit number at epoch: 0

The dashed part of the orbit path shows where the satellite is in the earth's shadow,  

DLR